Location: Huberhof
(49.2050°N, 7.4980°E)
Time: 05:34:08
(UTC+00:00)

SeaSat 1 - Pass Details

Date: 29 October 2020
Orbit: 744 x 747 km, 108.0° (Epoch: 25 November)

Event Time Altitude Azimuth Distance (km) Brightness Sun altitude
Exits shadow 18:00:38 33° 81° (E) 1,248 3.0 -18.0°
Maximum altitude 18:01:49 38° 50° (NE) 1,136 3.0 -18.2°
Drops below altitude 10° 18:06:22 10° 343° (NNW) 2,276 5.2 -19.0°
Sets 18:08:46 0° 336° (NNW) 3,204 6.1 -19.4°
